DW7661 Weather Reports


time (UTC)temp
F
wind
direction
speed
knots
gust
knots
rain 1hr
in
rain 24hr
in
rain mn
in
humidity
%
barometer
mb
20260503050003 58 166 0.9 1.7 0.01 0.20 0.06 92 1010.2
20260503045617 58 160 0.9 1.7 0.01 0.20 0.06 92 1010.2
20260503044503 58 146 0.9 1.7 0.01 0.21 0.06 92 1010.1
20260503043818 58 147 0.0 1.7 0.01 0.22 0.06 92 1010.3
20260503042703 58 137 0.0 1.7 0.01 0.22 0.06 92 1010.2
20260503041803 58 147 0.0 1.7 0.01 0.46 0.06 92 1010.3
20260503040903 58 156 0.9 1.7 0.00 0.47 0.06 92 1010.4
20260503040003 58 153 0.9 1.7 0.00 0.47 0.06 92 1010.5
20260503035403 58 145 0.0 0.9 0.00 0.47 0.06 92 1010.7
20260503034503 58 141 0.0 1.7 0.00 0.47 0.06 92 1010.7
20260503033603 58 124 0.0 1.7 0.00 0.47 0.06 92 1010.6
20260503032703 58 126 0.0 1.7 0.00 0.47 0.06 92 1010.7
20260503032018 58 117 0.0 1.7 0.00 0.47 0.06 92 1010.6
20260503030903 58 104 0.9 4.3 0.01 0.47 0.06 91 1010.7
20260503030003 58 101 0.0 1.7 0.01 0.47 0.06 91 1010.6
20260503025403 58 106 0.0 1.7 0.01 0.47 0.06 91 1010.7
20260503024503 58 125 0.0 1.7 0.02 0.47 0.06 91 1010.8
20260503023817 58 125 0.0 1.7 0.03 0.47 0.06 91 1010.9
20260503022703 58 115 0.0 1.7 0.05 0.47 0.06 91 1011.0
20260503021803 58 100 1.7 4.3 0.05 0.46 0.05 91 1010.9
20260503020903 58 105 0.9 2.6 0.05 0.46 0.05 91 1011.1
20260503020003 58 115 0.9 2.6 0.05 0.46 0.05 91 1011.4
20260503015618 58 104 0.9 4.3 0.05 0.46 0.05 91 1011.4
20260503014503 58 159 0.0 1.7 0.03 0.45 0.03 91 1011.7
20260503013603 58 167 0.9 1.7 0.02 0.43 0.02 91 1011.8
20260503012918 58 174 0.9 1.7 0.02 0.43 0.02 91 1012.0
20260503011803 58 169 1.7 3.5 0.00 0.42 0.00 91 1012.1
20260503010903 58 171 1.7 2.6 0.00 0.42 0.00 91 1012.2
20260503010003 58 164 1.7 2.6 0.00 0.42 0.00 91 1012.0
20260503005403 58 161 0.9 1.7 0.00 0.42 0.00 91 1012.0
20260503004503 58 156 0.9 1.7 0.00 0.42 0.00 91 1011.7
20260503003603 58 139 0.0 1.7 0.00 0.42 0.00 91 1011.7
20260503002917 58 146 0.0 1.7 0.00 0.42 0.00 91 1011.6
20260503001803 58 162 0.9 1.7 0.00 0.42 0.00 91 1011.9
20260503000903 58 155 0.9 1.7 0.00 0.42 0.00 91 1011.9
20260503000003 58 152 0.9 1.7 0.00 0.42 0.00 90 1011.9
20260502235403 58 155 0.9 1.7 0.00 0.42 0.00 90 1011.9
20260502234503 58 154 0.9 1.7 0.00 0.42 0.00 90 1012.0
20260502233818 58 157 0.9 1.7 0.00 0.42 0.00 90 1012.0
20260502232703 58 161 0.9 1.7 0.00 0.42 0.00 90 1012.1
20260502231803 58 138 0.9 1.7 0.00 0.42 0.00 90 1012.0
20260502230903 59 132 0.0 1.7 0.00 0.42 0.00 90 1012.1
20260502230003 59 142 0.0 1.7 0.00 0.42 0.00 90 1012.1
20260502225403 59 138 0.0 1.7 0.00 0.42 0.00 90 1012.2
20260502224503 59 100 0.9 2.6 0.00 0.42 0.00 89 1012.3
20260502223603 59 82 0.9 2.6 0.00 0.42 0.00 89 1012.2
20260502222703 59 91 0.9 2.6 0.00 0.42 0.00 89 1012.1
20260502222018 58 94 0.9 5.2 0.00 0.42 0.00 89 1012.2
20260502220903 58 92 1.7 5.2 0.00 0.42 0.00 89 1012.3
20260502220004 58 86 2.6 6.1 0.00 0.42 0.00 88 1012.3
20260502215618 58 88 2.6 6.1 0.00 0.42 0.42 88 1012.4
20260502214503 58 90 3.5 7.8 0.00 0.42 0.42 88 1012.6
20260502213603 58 95 4.3 9.6 0.00 0.42 0.42 87 1012.7
20260502212703 58 92 3.5 7.0 0.00 0.42 0.42 87 1012.6
20260502211803 58 86 2.6 6.1 0.01 0.42 0.42 87 1012.6
20260502210903 58 62 2.6 6.1 0.01 0.42 0.42 87 1012.4
20260502210003 58 60 1.7 5.2 0.01 0.42 0.42 87 1012.4
20260502205618 58 61 1.7 7.0 0.02 0.42 0.42 87 1012.4
20260502204717 58 58 3.5 7.0 0.03 0.42 0.42 87 1012.7
20260502203603 58 64 4.3 9.6 0.06 0.42 0.42 87 1012.9
20260502202918 58 60 2.6 7.8 0.08 0.42 0.42 87 1013.0
20260502201803 58 55 3.5 7.8 0.10 0.41 0.41 87 1013.0
20260502200903 59 64 3.5 7.8 0.12 0.41 0.41 87 1013.2
20260502200003 59 65 2.6 7.0 0.13 0.41 0.41 86 1013.5
20260502195618 59 59 1.7 7.0 0.13 0.40 0.40 87 1013.6
20260502194503 59 262 0.0 1.7 0.10 0.38 0.38 85 1013.4
20260502193603 60 262 1.7 6.1 0.09 0.36 0.36 84 1013.6
20260502192703 60 261 1.7 6.1 0.06 0.33 0.33 82 1013.6
20260502191803 62 240 2.6 8.7 0.03 0.31 0.31 79 1013.9
20260502191116 64 207 3.5 7.0 0.02 0.29 0.29 75 1014.1
20260502190003 68 66 0.9 3.5 0.00 0.28 0.28 69 1013.6
20260502185617 68 36 1.7 3.5 0.00 0.28 0.28 65 1013.3
20260502184716 68 14 3.5 6.1 0.00 0.28 0.28 64 1013.2
20260502183603 68 22 4.3 7.0 0.00 0.28 0.28 64 1013.0
20260502182703 68 17 3.5 6.1 0.00 0.28 0.28 65 1013.1
20260502181803 68 22 2.6 5.2 0.00 0.28 0.28 64 1013.2
20260502181118 68 19 2.6 5.2 0.00 0.28 0.28 65 1013.1
20260502163603 70 358 3.5 8.7 0.00 0.28 0.28 64 1013.7
20260502162703 70 358 4.3 7.8 0.00 0.28 0.28 65 1013.8
20260502162018 70 5 3.5 7.0 0.00 0.28 0.28 64 1013.9
20260502160903 70 340 3.5 7.8 0.00 0.28 0.28 64 1014.1
20260502152017 71 3 3.5 6.1 0.00 0.28 0.28 63 1014.7
20260502150903 71 5 3.5 6.1 0.00 0.28 0.28 63 1014.9
20260502130217 70 340 2.6 5.2 0.00 0.28 0.28 66 1016.7
20260502123603 70 285 0.9 3.5 0.00 0.28 0.28 68 1016.9
20260502122703 70 298 1.7 5.2 0.00 0.28 0.28 68 1017.2
20260502121803 69 292 1.7 6.1 0.00 0.28 0.28 70 1017.3
20260502120904 69 284 2.6 5.2 0.00 0.28 0.28 70 1017.3
20260502115403 69 297 1.7 4.3 0.00 0.28 0.28 72 1017.4
20260502113603 69 278 1.7 4.3 0.00 0.28 0.28 72 1017.7
20260502112703 68 333 0.9 3.5 0.00 0.28 0.28 73 1017.8
20260502111803 68 299 0.9 2.6 0.00 0.28 0.28 76 1017.9
20260502110903 68 216 0.9 3.5 0.00 0.28 0.28 77 1017.9
20260502110003 67 266 0.9 3.5 0.00 0.28 0.28 76 1017.9
20260502105403 67 198 0.9 2.6 0.00 0.28 0.28 80 1018.0
20260502104503 67 202 0.9 2.6 0.00 0.28 0.28 79 1018.1
20260502103603 66 197 0.9 2.6 0.00 0.28 0.28 81 1018.1
20260502102703 66 224 0.0 1.7 0.00 0.28 0.28 80 1018.2
20260502102017 66 223 0.0 1.7 0.00 0.28 0.28 80 1018.2
20260502100903 66 203 0.0 1.7 0.00 0.28 0.28 80 1018.4
20260502090903 63 278 0.9 3.5 0.00 0.28 0.28 85 1018.7
20260502071118 60 188 0.0 0.9 0.00 0.28 0.28 88 1018.6
20260502070003 60 182 0.0 1.7 0.00 0.28 0.28 90 1018.6
20260502065403 59 182 0.0 1.7 0.00 0.28 0.28 89 1018.7
20260502064503 60 183 0.0 1.7 0.00 0.28 0.28 89 1018.6
20260502063603 60 179 0.0 1.7 0.00 0.28 0.28 90 1018.5
20260502062917 59 184 0.9 1.7 0.00 0.28 0.28 91 1018.6
20260502061803 58 233 0.0 1.7 0.00 0.28 0.28 91 1018.6
20260502060903 57 287 0.0 1.7 0.00 0.28 0.28 91 1018.7
20260502060217 57 287 0.0 1.7 0.00 0.28 0.28 90 1018.6
20260502055403 57 316 0.0 1.7 0.00 0.28 0.28 90 1018.5
20260502054718 57 329 0.0 1.7 0.01 0.28 0.28 90 1018.4
20260502053603 57 326 0.0 1.7 0.02 0.28 0.28 90 1018.3
20260502052703 57 294 0.9 1.7 0.02 0.28 0.28 89 1018.2
20260502051803 56 283 0.9 3.5 0.25 0.28 0.28 89 1018.3
20260502050903 56 299 0.9 1.7 0.28 0.28 0.28 88 1018.3